Regional Weather Roundup
Issued by NWS

Home | Current Version | Previous Version | Text Only | Print | Product List | Glossary Off
Versions: 1 2 3 4 5 6 7 8 9 10 11 12 13 14 15 16 17 18 19 20 21 22 23 24 25 26 27 28 29 30 31 32 33 34 35 36 37 38 39 40 41 42 43 44 45 46 47 48 49 50

000
ASUS45 KABQ 260101
RWRNM
WEATHER ROUNDUP FOR NEW MEXICO
NATIONAL WEATHER SERVICE ALBUQUERQUE NM
700 PM MDT FRI JUL 25 2014

NOTE: "FAIR" MEANS FEW OR NO CLOUDS BELOW 12,000 FEET AGL WITH NO
       SIGNIFICANT WEATHER OR OBSTRUCTIONS TO VISION.

      THIS PRODUCT IS RELEASED AS TWO VERSIONS.  ONE VERSION NEAR
      THE TOP OF THE HOUR CONTAINING PRELIMINARY DATA FROM ALBUQUERQUE
      AND OTHER STATIONS.  A FINAL VERSION WITH ADDITIONAL DATA IS
      ISSUED ABOUT 10 MINUTES AFTER THE HOUR.

NMZ501-503-504-510>518-260200-
NORTHWEST PLATEAU/NORTHCENTRAL MOUNTAINS

CITY           SKY/WX    TMP DP  RH WIND       PRES   REMARKS
FARMINGTON     MOSUNNY   91  41  17 VRB7      30.07F
LOS ALAMOS     MOSUNNY   83  40  22 NW3       30.23F
SANTA FE       MOSUNNY   89  42  19 NE6       30.13F
TAOS           CLOUDY    84  43  23 NE10G17   30.22R
ANGEL FIRE     FAIR      78  44  30 W13       30.34S

$$
NMZ402-403-502-505>509-260200-
WESTCENTRAL MOUNTAINS/SOUTHWEST MOUNTAINS

CITY           SKY/WX    TMP DP  RH WIND       PRES   REMARKS
GALLUP         MOSUNNY   90  35  14 W6        30.17S
GRANTS         MOSUNNY   87  35  15 CALM      30.18S

$$
NMZ407-409-411-412-260200-
SOUTHERN DESERTS

CITY           SKY/WX    TMP DP  RH WIND       PRES   REMARKS
LORDSBURG      FAIR      95  41  15 CALM      29.99S
DEMING         MOSUNNY   96  42  15 VRB3      30.00S
LAS CRUCES     SUNNY     96  38  13 E5        30.03S
HOLLOMAN AFB   SUNNY     98  37  11 N8        29.96F
T OR C         SUNNY     95  37  13 S7        30.03S

$$
NMZ519>523-260200-
CENTRAL VALLEYS/CENTRAL HIGHLANDS

CITY           SKY/WX    TMP DP  RH WIND       PRES   REMARKS
ALBUQUERQUE    MOSUNNY   94  41  16 CALM      30.06F
DOUBLE EAGLE   MOSUNNY   91  41  17 W8        30.11F
CLINES CORNERS SUNNY     88  30  12 W12       30.21S
BELEN          FAIR      94  42  16 E7        30.05S
SOCORRO        FAIR      96  35  12 S8        30.02F

$$
NMZ524>526-539-540-260200-
SOUTHCENTRAL MOUNTAINS

CITY           SKY/WX    TMP DP  RH WIND       PRES   REMARKS
RUIDOSO        NOT AVBL

$$
NMZ527>531-260200-
NORTHEAST HIGHLANDS/NORTHEAST PLAINS

CITY           SKY/WX    TMP DP  RH WIND       PRES   REMARKS
LAS VEGAS      MOSUNNY   87  43  21 SW10      30.17F
RATON          CLOUDY    86  43  22 W23G33    30.12R
CLAYTON        MOSUNNY   96  36  12 S16       29.98F

$$
NMZ532>537-260200-
EASTCENTRAL PLAINS

CITY           SKY/WX    TMP DP  RH WIND       PRES   REMARKS
TUCUMCARI      SUNNY     99  45  15 SW13      29.92F HX  95
CANNON AFB     SUNNY     93  51  23 S15       30.01F
CLOVIS AIRPORT NOT AVBL

$$
NMZ028-029-538-260200-
SOUTHEAST PLAINS

CITY           SKY/WX    TMP DP  RH WIND       PRES   REMARKS
ROSWELL        SUNNY     98  45  16 SE16      29.96F
ARTESIA        SUNNY     97  46  17 SE14      29.96S
CARLSBAD       PTSUNNY   99  42  14 S10       29.94S
HOBBS          SUNNY     93  41  16 SE14      30.01S


$$


USA.gov is the U.S. government's official web portal to all federal, state and local government web resources and services.